User: anonymous   Login
Location: El Bakhil
(32.7726°N, 5.5387°W)
Time: 01:56:45
(UTC+00:00)
Language:

Cosmos 968 Rocket - Orbit

View from above orbital plane
View from above orbital plane
View from above satellite
View from above satellite

Ground track
Ground track

The orbit data is extracted from the following two-line orbital elements,

1 10521U 77119B   21136.46002247 -.00000037  00000-0 -31011-5 0  9995
2 10521  74.0245 141.5490 0020751 169.1943 190.9663 14.40821440277812
Epoch (UTC): 16 May 2021 11:02:25
Eccentricity: 0.0020751
inclination: 74.0245°
perigee height: 741 km
apogee height: 770 km
right ascension of ascending node: 141.5490°
argument of perigee: 169.1943°
revolutions per day: 14.40821440
mean anomaly at epoch: 190.9663°
orbit number at epoch: 27781

The dashed part of the orbit path shows where the satellite is in the earth's shadow,  

DLR